Location: Milton
(43.5183°N, 79.8775°W)
Time: 08:11:13
(UTC+00:00)

UNISAT 6 - Pass Details

Date: 26 March 2023
Orbit: 599 x 680 km, 97.7° (Epoch: 02 June)

Event Time Altitude Azimuth Distance (km) Brightness Sun altitude
Rises 09:19:13 0° 140° (SE) 2,883 ? -20.7°
Reaches altitude 10° 09:21:33 10° 130° (SE) 1,995 ? -20.3°
Maximum altitude 09:25:21 31° 68° (ENE) 1,123 ? -19.6°
Drops below altitude 10° 09:29:17 10° 7° (N) 2,053 ? -19.0°
Sets 09:31:42 0° 357° (N) 2,983 ? -18.6°
